Regional Weather Roundup
Issued by NWS Spokane, WA

Home | Current Version | Previous Version | Text Only | Print | Product List | Glossary On
Versions: 1 2 3 4 5 6 7 8 9 10 11 12 13 14 15 16 17 18 19 20 21 22 23 24 25 26 27 28 29 30 31 32 33 34 35 36 37 38 39 40 41 42 43 44 45 46 47 48 49 50
000
NZUS01 KOTX 242025
RWROTX

Eastern Washington/Northern Idaho Roundup
National Weather Service, Spokane WA
100 PM PDT SAT JUN 24 2017

Note: "fair" indicated few or no clouds below 12,000 feet with no
significant weather and/or obstructions to visibility.

...Northeast Washington and Northern Idaho Panhandle...

CITY           SKY/WX    TMP DP  RH WIND       PRES   REMARKS
Spokane Intl   MOSUNNY   80  36  20 CALM      30.23F
Spokane Downto SUNNY     83  39  21 N8        30.21F
Coeur d Alene  SUNNY     81  37  20 NE6       30.22F
Deer Park      SUNNY     82  30  15 MISG      30.22F
Sandpoint      SUNNY     79  36  21 E3        30.22F
Bonners Ferry  FAIR      77  46  33 SE5       30.23F

...Southeast Washington and southern Idaho Panhandle...

CITY           SKY/WX    TMP DP  RH WIND       PRES   REMARKS
Walla Walla    SUNNY     88  48  25 SW8       30.14F
Pullman/Moscow SUNNY     80  40  23 N8        30.24S
Lewiston       SUNNY     83  41  22 NW7       30.17F
Lowell           N/A     83  47  28 VRB7      30.13F
Grangeville    FAIR      77  37  24 CALM      30.24F

...Columbia Basin...

CITY           SKY/WX    TMP DP  RH WIND       PRES   REMARKS
Ephrata        SUNNY     89  30  12 N8G17     30.16F
Moses Lake     SUNNY     88  32  13 CALM      30.17F
Pasco          SUNNY     87  45  23 NW6       30.14F
Richland       CLEAR     92  42  17 NE9       30.12F
Hermiston      SUNNY     90  40  17 VRB3      30.12F
Pendleton      SUNNY     88  33  14 N12       30.15F

...East Slopes Cascades...

CITY           SKY/WX    TMP DP  RH WIND       PRES   REMARKS
The Dalles     SUNNY     93  38  14 E10       30.09F
Yakima         SUNNY     90  44  20 SW5       30.16F
Ellensburg     SUNNY     90  37  15 S10       30.19F
Stampede Pass  SUNNY     80  41  24 VRB5      30.29F
Wenatchee      SUNNY     85  37  18 SW6       30.17F
Omak           SUNNY     86  32  14 VRB3      30.18F
Chelan           N/A     84  34  16 W5          N/A
Sunnyside      CLEAR     86  49  27 N3        30.13F

...Southern British Columbia...

CITY           SKY/WX    TMP DP  RH WIND       PRES   REMARKS
Penticton      MOSUNNY   79  43  27 N7        30.19F
Castlegar      MOSUNNY   79  41  25 NE5       30.19F
Cranbrook      MOSUNNY   77  34  20 VRB3      30.26F
Osoyoos          N/A     82  45  26 NW3         N/A
Creston          N/A     79  45  29 W2          N/A

...Western Montana...

CITY           SKY/WX    TMP DP  RH WIND       PRES   REMARKS
Kalispell      CLEAR     76  45  33 VRB3      30.25F
Missoula       SUNNY     77  36  22 CALM      30.24F

...Neighboring Cities...

CITY           SKY/WX    TMP DP  RH WIND       PRES   REMARKS
Seattle        SUNNY     83  57  41 NW8       30.11F
Portland       SUNNY     94  40  15 E21G26    29.99F HX  90
Boise          SUNNY     82  34  17 NW6       30.17F
Great Falls    SUNNY     71  36  27 E8        30.31F
Calgary        PTSUNNY   66  37  34 CALM      30.34S



USA.gov is the U.S. government's official web portal to all federal, state and local government web resources and services.